Вернуться в каталог

STARLINK-32863

АктивенСвязьVLEO
NORAD 62968·PAYLOAD·🇺🇸 United States

Запущен Feb 11, 2025 с Vandenberg Space Force Base

Loading…

Ближайшие Пролёты (ближайшие 24 часа)

TLE

СвежийSource: CelesTrak SupGP

Эпоха: Sep 15, 2026, 02:16 UTC

1 62968C 25029W   26258.09493056 -.00019932  00000+0 -64108-3 0  2583
2 62968  53.1589  71.2946 0001172  83.6776   1.9218 15.31706149    10

Отслеживайте STARLINK-32863 в реальном времени с AllMySat

Download on the App Store